| time (UTC) | temp F | wind direction | speed MPH | gust MPH | rain 1hr in | rain 24hr in | rain mn in | humidity % | barometer mb |
| 20260903181547 | 92 | 31 | 3.0 | 7.0 | 0.00 | 0.00 | 0.00 | 79 | 1013.9 |
| 20260903181043 | 92 | 54 | 2.0 | 7.0 | 0.00 | 0.00 | 0.00 | 79 | 1013.9 |
| 20260903180540 | 92 | 26 | 2.0 | 7.0 | 0.00 | 0.00 | 0.00 | 78 | 1014.2 |
| 20260903180005 | 93 | 72 | 2.0 | 7.0 | 0.00 | 0.00 | 0.00 | 77 | 1014.6 |
| 20260903175502 | 93 | 81 | 1.0 | 6.0 | 0.00 | 0.00 | 0.00 | 78 | 1014.6 |
| 20260903174959 | 93 | 78 | 3.0 | 6.0 | 0.00 | 0.00 | 0.00 | 76 | 1014.6 |
| 20260903174456 | 93 | 74 | 1.0 | 3.0 | 0.00 | 0.00 | 0.00 | 73 | 1014.6 |
| 20260903173953 | 93 | 79 | 1.0 | 3.0 | 0.00 | 0.00 | 0.00 | 74 | 1014.6 |
| 20260903173451 | 93 | 91 | 0.0 | 3.0 | 0.00 | 0.00 | 0.00 | 74 | 1014.6 |
| 20260903172913 | 93 | 167 | 2.0 | 3.0 | 0.00 | 0.00 | 0.00 | 74 | 1014.6 |
| 20260903172314 | 94 | 330 | 1.0 | 3.0 | 0.00 | 0.00 | 0.00 | 74 | 1014.6 |
| 20260903171809 | 93 | 355 | 1.0 | 3.0 | 0.00 | 0.00 | 0.00 | 76 | 1014.9 |
| 20260903171247 | 92 | 15 | 1.0 | 3.0 | 0.00 | 0.00 | 0.00 | 77 | 1014.9 |
| 20260903170725 | 92 | 249 | 1.0 | 3.0 | 0.00 | 0.00 | 0.00 | 75 | 1014.9 |
| 20260903170221 | 91 | 243 | 1.0 | 3.0 | 0.00 | 0.00 | 0.00 | 78 | 1014.9 |
| 20260903165718 | 91 | 244 | 1.0 | 3.0 | 0.00 | 0.00 | 0.00 | 78 | 1014.9 |
| 20260903165215 | 90 | 239 | 1.0 | 3.0 | 0.00 | 0.00 | 0.00 | 80 | 1015.2 |
| 20260903164712 | 90 | 265 | 2.0 | 3.0 | 0.00 | 0.00 | 0.00 | 79 | 1014.9 |
| 20260903164138 | 90 | 20 | 1.0 | 6.0 | 0.00 | 0.00 | 0.00 | 81 | 1014.9 |
| 20260903163635 | 89 | 274 | 1.0 | 6.0 | 0.00 | 0.00 | 0.00 | 83 | 1014.9 |
| 20260903163133 | 88 | 274 | 0.0 | 6.0 | 0.00 | 0.00 | 0.00 | 84 | 1014.9 |
| 20260903162630 | 87 | 260 | 3.0 | 6.0 | 0.00 | 0.00 | 0.00 | 86 | 1014.9 |
| 20260903162056 | 86 | 260 | 1.0 | 2.0 | 0.00 | 0.00 | 0.00 | 87 | 1014.6 |
| 20260903161553 | 85 | 249 | 0.0 | 2.0 | 0.00 | 0.00 | 0.00 | 89 | 1014.6 |
| 20260903161019 | 84 | 65 | 0.0 | 2.0 | 0.00 | 0.00 | 0.00 | 89 | 1014.6 |
| 20260903160426 | 84 | 65 | 0.0 | 2.0 | 0.00 | 0.00 | 0.00 | 89 | 1014.6 |
| 20260903155852 | 83 | 65 | 1.0 | 1.0 | 0.00 | 0.00 | 0.00 | 90 | 1014.6 |
| 20260903155348 | 83 | 65 | 0.0 | 1.0 | 0.00 | 0.00 | 0.00 | 90 | 1014.9 |
| 20260903154844 | 83 | 65 | 0.0 | 1.0 | 0.00 | 0.00 | 0.00 | 90 | 1014.9 |
| 20260903154341 | 83 | 65 | 1.0 | 2.0 | 0.00 | 0.00 | 0.00 | 90 | 1014.9 |
| 20260903153800 | 82 | 65 | 0.0 | 2.0 | 0.00 | 0.00 | 0.00 | 91 | 1014.9 |
| 20260903153234 | 82 | 65 | 0.0 | 2.0 | 0.00 | 0.00 | 0.00 | 90 | 1014.9 |
| 20260903152729 | 82 | 59 | 1.0 | 1.0 | 0.00 | 0.00 | 0.00 | 90 | 1014.9 |
| 20260903152210 | 82 | 55 | 1.0 | 1.0 | 0.00 | 0.00 | 0.00 | 91 | 1014.9 |
| 20260903151706 | 82 | 53 | 0.0 | 1.0 | 0.00 | 0.00 | 0.00 | 91 | 1014.9 |
| 20260903151203 | 82 | 73 | 0.0 | 0.0 | 0.00 | 0.00 | 0.00 | 90 | 1014.9 |
| 20260903150628 | 81 | 80 | 0.0 | 0.0 | 0.00 | 0.00 | 0.00 | 90 | 1014.9 |
| 20260903150125 | 81 | 80 | 0.0 | 0.0 | 0.00 | 0.00 | 0.00 | 91 | 1014.6 |
| 20260903145557 | 81 | 80 | 0.0 | 0.0 | 0.00 | 0.00 | 0.00 | 90 | 1014.6 |
| 20260903145053 | 80 | 80 | 0.0 | 0.0 | 0.00 | 0.00 | 0.00 | 90 | 1014.6 |
| 20260903144550 | 80 | 80 | 0.0 | 0.0 | 0.00 | 0.00 | 0.00 | 90 | 1014.6 |
| 20260903144047 | 80 | 80 | 0.0 | 0.0 | 0.00 | 0.00 | 0.00 | 91 | 1014.9 |
| 20260903143543 | 80 | 80 | 0.0 | 0.0 | 0.00 | 0.00 | 0.00 | 91 | 1014.9 |
| 20260903143041 | 80 | 80 | 0.0 | 0.0 | 0.00 | 0.00 | 0.00 | 91 | 1014.6 |
| 20260903142538 | 79 | 80 | 0.0 | 0.0 | 0.00 | 0.00 | 0.00 | 91 | 1014.9 |
| 20260903141933 | 79 | 80 | 0.0 | 0.0 | 0.00 | 0.00 | 0.00 | 90 | 1014.9 |
| 20260903141429 | 79 | 80 | 0.0 | 0.0 | 0.00 | 0.00 | 0.00 | 90 | 1014.9 |
| 20260903140927 | 79 | 80 | 0.0 | 0.0 | 0.00 | 0.00 | 0.00 | 90 | 1014.9 |
| 20260903140424 | 79 | 80 | 0.0 | 0.0 | 0.00 | 0.00 | 0.00 | 90 | 1014.9 |
| 20260903135921 | 79 | 80 | 0.0 | 0.0 | 0.00 | 0.00 | 0.00 | 89 | 1014.9 |
| 20260903135418 | 79 | 80 | 0.0 | 0.0 | 0.00 | 0.00 | 0.00 | 89 | 1014.9 |
| 20260903134915 | 79 | 80 | 0.0 | 0.0 | 0.00 | 0.00 | 0.00 | 89 | 1014.9 |
| 20260903134412 | 79 | 80 | 0.0 | 0.0 | 0.00 | 0.00 | 0.00 | 89 | 1014.9 |
| 20260903133838 | 79 | 80 | 0.0 | 0.0 | 0.00 | 0.00 | 0.00 | 89 | 1014.9 |
| 20260903133335 | 79 | 80 | 0.0 | 0.0 | 0.00 | 0.00 | 0.00 | 89 | 1014.9 |
| 20260903132832 | 79 | 80 | 0.0 | 0.0 | 0.00 | 0.00 | 0.00 | 89 | 1014.9 |
| 20260903132329 | 79 | 80 | 0.0 | 0.0 | 0.00 | 0.00 | 0.00 | 89 | 1014.9 |
| 20260903131748 | 79 | 80 | 0.0 | 0.0 | 0.00 | 0.00 | 0.00 | 88 | 1014.9 |
| 20260903130649 | 79 | 80 | 0.0 | 0.0 | 0.00 | 0.00 | 0.00 | 88 | 1014.9 |
| 20260903130146 | 79 | 80 | 0.0 | 0.0 | 0.00 | 0.00 | 0.00 | 88 | 1014.9 |
| 20260903125644 | 79 | 80 | 0.0 | 0.0 | 0.00 | 0.00 | 0.00 | 88 | 1014.9 |
| 20260903125141 | 79 | 80 | 0.0 | 0.0 | 0.00 | 0.00 | 0.00 | 88 | 1014.6 |
| 20260903124638 | 79 | 80 | 0.0 | 0.0 | 0.00 | 0.00 | 0.00 | 89 | 1014.6 |
| 20260903124135 | 79 | 80 | 0.0 | 0.0 | 0.00 | 0.00 | 0.00 | 88 | 1014.6 |
| 20260903123632 | 80 | 80 | 0.0 | 0.0 | 0.00 | 0.00 | 0.00 | 88 | 1014.6 |
| 20260903123057 | 80 | 80 | 0.0 | 1.0 | 0.00 | 0.00 | 0.00 | 88 | 1014.6 |
| 20260903122554 | 81 | 80 | 0.0 | 1.0 | 0.00 | 0.00 | 0.00 | 89 | 1014.6 |
| 20260903122051 | 82 | 80 | 0.0 | 1.0 | 0.00 | 0.00 | 0.00 | 92 | 1014.6 |
| 20260903121548 | 82 | 80 | 1.0 | 1.0 | 0.00 | 0.00 | 0.00 | 92 | 1014.2 |
| 20260903121045 | 82 | 80 | 0.0 | 1.0 | 0.00 | 0.00 | 0.00 | 92 | 1013.9 |
| 20260903120522 | 82 | 80 | 0.0 | 1.0 | 0.00 | 0.00 | 0.00 | 92 | 1013.9 |
| 20260903115953 | 82 | 80 | 0.0 | 1.0 | 0.00 | 0.00 | 0.00 | 92 | 1013.9 |
| 20260903115349 | 82 | 80 | 0.0 | 0.0 | 0.00 | 0.00 | 0.00 | 92 | 1013.9 |
| 20260903114846 | 82 | 80 | 0.0 | 0.0 | 0.00 | 0.00 | 0.00 | 92 | 1013.9 |
| 20260903114323 | 82 | 80 | 0.0 | 1.0 | 0.00 | 0.00 | 0.00 | 92 | 1013.9 |
| 20260903113734 | 82 | 80 | 0.0 | 1.0 | 0.00 | 0.00 | 0.00 | 92 | 1013.9 |
| 20260903113231 | 82 | 80 | 0.0 | 1.0 | 0.00 | 0.00 | 0.00 | 92 | 1013.9 |
| 20260903112728 | 82 | 80 | 0.0 | 0.0 | 0.00 | 0.00 | 0.00 | 92 | 1013.9 |
| 20260903112226 | 82 | 80 | 0.0 | 0.0 | 0.00 | 0.00 | 0.00 | 92 | 1013.9 |
| 20260903111723 | 82 | 80 | 0.0 | 0.0 | 0.00 | 0.00 | 0.00 | 91 | 1013.9 |
| 20260903111220 | 82 | 80 | 0.0 | 0.0 | 0.00 | 0.00 | 0.00 | 91 | 1013.9 |
| 20260903110717 | 82 | 80 | 0.0 | 0.0 | 0.00 | 0.00 | 0.00 | 91 | 1013.9 |
| 20260903110120 | 82 | 80 | 0.0 | 0.0 | 0.00 | 0.00 | 0.00 | 91 | 1013.9 |
| 20260903105616 | 82 | 80 | 0.0 | 0.0 | 0.00 | 0.00 | 0.00 | 91 | 1013.9 |
| 20260903105043 | 82 | 80 | 0.0 | 0.0 | 0.00 | 0.00 | 0.00 | 91 | 1013.9 |
| 20260903104539 | 82 | 80 | 0.0 | 0.0 | 0.00 | 0.00 | 0.00 | 91 | 1013.9 |
| 20260903104035 | 82 | 80 | 0.0 | 0.0 | 0.00 | 0.00 | 0.00 | 91 | 1013.5 |
| 20260903103532 | 82 | 80 | 0.0 | 0.0 | 0.00 | 0.00 | 0.00 | 91 | 1013.5 |
| 20260903103028 | 82 | 80 | 0.0 | 0.0 | 0.00 | 0.00 | 0.00 | 91 | 1013.5 |
| 20260903102525 | 82 | 80 | 0.0 | 0.0 | 0.00 | 0.00 | 0.00 | 91 | 1013.5 |
| 20260903102022 | 82 | 80 | 0.0 | 0.0 | 0.00 | 0.00 | 0.00 | 91 | 1013.5 |
| 20260903101518 | 82 | 80 | 0.0 | 0.0 | 0.00 | 0.00 | 0.00 | 91 | 1013.5 |
| 20260903101015 | 82 | 80 | 0.0 | 0.0 | 0.00 | 0.00 | 0.00 | 91 | 1013.5 |
| 20260903100512 | 82 | 80 | 0.0 | 0.0 | 0.00 | 0.00 | 0.00 | 91 | 1013.5 |
| 20260903100010 | 82 | 80 | 0.0 | 0.0 | 0.00 | 0.00 | 0.00 | 91 | 1013.5 |
| 20260903095436 | 82 | 80 | 0.0 | 0.0 | 0.00 | 0.00 | 0.00 | 91 | 1013.5 |
| 20260903094933 | 82 | 80 | 0.0 | 0.0 | 0.00 | 0.00 | 0.00 | 91 | 1013.5 |
| 20260903094429 | 82 | 80 | 0.0 | 0.0 | 0.00 | 0.00 | 0.00 | 90 | 1013.5 |
| 20260903093926 | 82 | 80 | 0.0 | 0.0 | 0.00 | 0.00 | 0.00 | 90 | 1013.5 |
| 20260903093423 | 83 | 80 | 0.0 | 0.0 | 0.00 | 0.00 | 0.00 | 90 | 1013.5 |
| 20260903092902 | 83 | 80 | 0.0 | 0.0 | 0.00 | 0.00 | 0.00 | 90 | 1013.5 |
| 20260903092358 | 83 | 80 | 0.0 | 0.0 | 0.00 | 0.00 | 0.00 | 90 | 1013.5 |
| 20260903091855 | 83 | 80 | 0.0 | 0.0 | 0.00 | 0.00 | 0.00 | 90 | 1013.5 |
| 20260903091353 | 83 | 80 | 0.0 | 0.0 | 0.00 | 0.00 | 0.00 | 90 | 1013.5 |
| 20260903090759 | 83 | 80 | 0.0 | 0.0 | 0.00 | 0.00 | 0.00 | 90 | 1013.5 |
| 20260903090134 | 83 | 80 | 0.0 | 1.0 | 0.00 | 0.00 | 0.00 | 90 | 1013.5 |
| 20260903085544 | 83 | 80 | 0.0 | 1.0 | 0.00 | 0.00 | 0.00 | 90 | 1013.5 |
| 20260903085010 | 83 | 80 | 0.0 | 1.0 | 0.00 | 0.00 | 0.00 | 90 | 1013.5 |
| 20260903084449 | 83 | 80 | 1.0 | 1.0 | 0.00 | 0.00 | 0.00 | 90 | 1013.5 |
| 20260903083946 | 83 | 80 | 0.0 | 0.0 | 0.00 | 0.00 | 0.00 | 90 | 1013.5 |
| 20260903083444 | 83 | 80 | 0.0 | 0.0 | 0.00 | 0.00 | 0.00 | 90 | 1013.5 |
| 20260903082941 | 83 | 80 | 0.0 | 0.0 | 0.00 | 0.00 | 0.00 | 90 | 1013.5 |
| 20260903082438 | 83 | 80 | 0.0 | 1.0 | 0.00 | 0.00 | 0.00 | 90 | 1013.5 |
| 20260903081934 | 83 | 80 | 0.0 | 1.0 | 0.00 | 0.00 | 0.00 | 90 | 1013.5 |
| 20260903081432 | 83 | 80 | 0.0 | 1.0 | 0.00 | 0.00 | 0.00 | 90 | 1013.5 |
| 20260903080928 | 83 | 80 | 0.0 | 1.0 | 0.00 | 0.00 | 0.00 | 90 | 1013.5 |
| 20260903080353 | 83 | 91 | 0.0 | 1.0 | 0.00 | 0.00 | 0.00 | 90 | 1013.5 |
| 20260903075819 | 83 | 91 | 0.0 | 1.0 | 0.00 | 0.00 | 0.00 | 90 | 1013.2 |
| 20260903075316 | 83 | 91 | 0.0 | 1.0 | 0.00 | 0.00 | 0.00 | 90 | 1013.2 |
| 20260903074813 | 83 | 104 | 1.0 | 1.0 | 0.00 | 0.00 | 0.00 | 90 | 1013.2 |
| 20260903074309 | 83 | 162 | 1.0 | 1.0 | 0.00 | 0.00 | 0.00 | 90 | 1013.5 |
| 20260903073806 | 83 | 162 | 0.0 | 1.0 | 0.00 | 0.00 | 0.00 | 90 | 1013.2 |
| 20260903072624 | 83 | 162 | 0.0 | 0.0 | 0.00 | 0.00 | 0.00 | 90 | 1013.5 |
| 20260903072120 | 83 | 162 | 0.0 | 0.0 | 0.00 | 0.00 | 0.00 | 90 | 1013.5 |
| 20260903071617 | 83 | 162 | 0.0 | 0.0 | 0.00 | 0.00 | 0.00 | 90 | 1013.5 |
| 20260903071115 | 83 | 162 | 0.0 | 0.0 | 0.00 | 0.00 | 0.00 | 90 | 1013.5 |
| 20260903070556 | 83 | 162 | 0.0 | 0.0 | 0.00 | 0.00 | 0.00 | 90 | 1013.5 |
| 20260903070034 | 83 | 162 | 0.0 | 0.0 | 0.00 | 0.00 | 0.00 | 90 | 1013.5 |
| 20260903065532 | 83 | 162 | 0.0 | 0.0 | 0.00 | 0.00 | 0.00 | 90 | 1013.9 |
| 20260903065028 | 83 | 162 | 0.0 | 0.0 | 0.00 | 0.00 | 0.00 | 90 | 1013.9 |
| 20260903064525 | 83 | 162 | 0.0 | 0.0 | 0.00 | 0.00 | 0.00 | 90 | 1013.9 |
| 20260903064022 | 83 | 162 | 0.0 | 1.0 | 0.00 | 0.00 | 0.00 | 90 | 1013.9 |
| 20260903063520 | 83 | 162 | 0.0 | 1.0 | 0.00 | 0.00 | 0.00 | 90 | 1013.9 |
| 20260903063016 | 83 | 162 | 0.0 | 1.0 | 0.00 | 0.00 | 0.00 | 90 | 1013.9 |
| 20260903062459 | 83 | 162 | 0.0 | 1.0 | 0.00 | 0.00 | 0.00 | 90 | 1013.9 |
| 20260903061936 | 83 | 40 | 0.0 | 0.0 | 0.00 | 0.00 | 0.00 | 90 | 1014.2 |
| 20260903061402 | 83 | 40 | 0.0 | 0.0 | 0.00 | 0.00 | 0.00 | 90 | 1014.2 |
| 20260903060859 | 83 | 40 | 0.0 | 1.0 | 0.00 | 0.00 | 0.00 | 90 | 1014.2 |
| 20260903060338 | 83 | 40 | 0.0 | 1.0 | 0.00 | 0.00 | 0.00 | 89 | 1014.2 |
| 20260903055804 | 83 | 40 | 0.0 | 1.0 | 0.00 | 0.00 | 0.00 | 89 | 1014.2 |
| 20260903055301 | 83 | 40 | 0.0 | 1.0 | 0.00 | 0.00 | 0.00 | 89 | 1014.6 |
| 20260903054758 | 83 | 57 | 0.0 | 0.0 | 0.00 | 0.00 | 0.00 | 89 | 1014.6 |
| 20260903054255 | 83 | 57 | 0.0 | 0.0 | 0.00 | 0.00 | 0.00 | 89 | 1014.6 |
| 20260903053752 | 83 | 57 | 0.0 | 0.0 | 0.00 | 0.00 | 0.00 | 89 | 1014.6 |
| 20260903053248 | 83 | 57 | 0.0 | 0.0 | 0.00 | 0.00 | 0.00 | 89 | 1014.6 |
| 20260903052745 | 83 | 57 | 0.0 | 0.0 | 0.00 | 0.00 | 0.00 | 89 | 1014.6 |
| 20260903051703 | 83 | 57 | 0.0 | 0.0 | 0.00 | 0.00 | 0.00 | 89 | 1014.6 |
| 20260903051200 | 83 | 57 | 0.0 | 0.0 | 0.00 | 0.00 | 0.00 | 89 | 1014.6 |
| 20260903050657 | 83 | 57 | 0.0 | 0.0 | 0.00 | 0.00 | 0.00 | 88 | 1014.6 |
| 20260903050154 | 83 | 57 | 0.0 | 0.0 | 0.00 | 0.00 | 0.00 | 88 | 1014.6 |
| 20260903045609 | 83 | 57 | 0.0 | 0.0 | 0.00 | 0.00 | 0.00 | 88 | 1014.6 |
| 20260903045106 | 83 | 57 | 0.0 | 0.0 | 0.00 | 0.00 | 0.00 | 88 | 1014.6 |
| 20260903044603 | 83 | 57 | 0.0 | 0.0 | 0.00 | 0.00 | 0.00 | 88 | 1014.9 |
| 20260903044100 | 83 | 57 | 0.0 | 0.0 | 0.00 | 0.00 | 0.00 | 88 | 1014.9 |
| 20260903043557 | 84 | 57 | 0.0 | 0.0 | 0.00 | 0.00 | 0.00 | 88 | 1014.6 |
| 20260903043055 | 84 | 57 | 0.0 | 0.0 | 0.00 | 0.00 | 0.00 | 88 | 1014.6 |
| 20260903042552 | 84 | 57 | 0.0 | 0.0 | 0.00 | 0.00 | 0.00 | 88 | 1014.6 |
| 20260903042031 | 84 | 57 | 0.0 | 0.0 | 0.00 | 0.00 | 0.00 | 88 | 1014.6 |
| 20260903041434 | 84 | 33 | 0.0 | 0.0 | 0.00 | 0.00 | 0.00 | 88 | 1014.6 |
| 20260903040844 | 84 | 33 | 0.0 | 0.0 | 0.00 | 0.00 | 0.00 | 88 | 1014.6 |
| 20260903040326 | 84 | 33 | 0.0 | 0.0 | 0.00 | 0.00 | 0.00 | 88 | 1014.9 |
| 20260903035804 | 84 | 33 | 0.0 | 1.0 | 0.00 | 0.00 | 0.00 | 88 | 1014.9 |
| 20260903035301 | 84 | 33 | 0.0 | 1.0 | 0.00 | 0.00 | 0.00 | 88 | 1014.6 |
| 20260903034739 | 84 | 33 | 0.0 | 1.0 | 0.00 | 0.00 | 0.00 | 88 | 1014.2 |
| 20260903034204 | 84 | 33 | 1.0 | 1.0 | 0.00 | 0.00 | 0.00 | 88 | 1014.2 |
| 20260903033702 | 84 | 29 | 0.0 | 0.0 | 0.00 | 0.00 | 0.00 | 88 | 1014.6 |
| 20260903033127 | 84 | 29 | 0.0 | 1.0 | 0.00 | 0.00 | 0.00 | 88 | 1014.6 |
| 20260903032623 | 84 | 29 | 0.0 | 1.0 | 0.00 | 0.00 | 0.00 | 87 | 1014.6 |
| 20260903032121 | 84 | 29 | 0.0 | 1.0 | 0.00 | 0.00 | 0.00 | 87 | 1014.6 |
| 20260903031559 | 84 | 29 | 1.0 | 1.0 | 0.00 | 0.00 | 0.00 | 87 | 1014.6 |
| 20260903031056 | 84 | 30 | 0.0 | 1.0 | 0.00 | 0.00 | 0.00 | 87 | 1014.2 |
| 20260903030537 | 84 | 30 | 0.0 | 1.0 | 0.00 | 0.00 | 0.00 | 87 | 1014.2 |
| 20260903030034 | 84 | 30 | 0.0 | 1.0 | 0.00 | 0.00 | 0.00 | 87 | 1014.2 |
| 20260903025501 | 84 | 30 | 0.0 | 1.0 | 0.00 | 0.00 | 0.00 | 87 | 1013.9 |
| 20260903024958 | 85 | 27 | 0.0 | 1.0 | 0.00 | 0.00 | 0.00 | 87 | 1013.9 |
| 20260903024454 | 85 | 27 | 0.0 | 1.0 | 0.00 | 0.00 | 0.00 | 87 | 1013.9 |
| 20260903023951 | 85 | 355 | 1.0 | 1.0 | 0.00 | 0.00 | 0.00 | 88 | 1013.9 |
| 20260903023447 | 85 | 355 | 1.0 | 1.0 | 0.00 | 0.00 | 0.00 | 88 | 1013.9 |
| 20260903022913 | 85 | 355 | 0.0 | 2.0 | 0.00 | 0.00 | 0.00 | 88 | 1013.9 |
| 20260903022410 | 85 | 355 | 0.0 | 2.0 | 0.00 | 0.00 | 0.00 | 87 | 1013.5 |
| 20260903021907 | 85 | 355 | 0.0 | 2.0 | 0.00 | 0.00 | 0.00 | 87 | 1013.5 |
| 20260903021346 | 85 | 8 | 1.0 | 2.0 | 0.00 | 0.00 | 0.00 | 87 | 1013.5 |
| 20260903020758 | 85 | 214 | 0.0 | 1.0 | 0.00 | 0.00 | 0.00 | 87 | 1013.5 |
| 20260903020217 | 85 | 214 | 0.0 | 1.0 | 0.00 | 0.00 | 0.00 | 87 | 1013.5 |
| 20260903015714 | 85 | 214 | 0.0 | 1.0 | 0.00 | 0.00 | 0.00 | 87 | 1013.5 |
| 20260903015138 | 85 | 189 | 0.0 | 0.0 | 0.00 | 0.00 | 0.00 | 87 | 1013.5 |
| 20260903014636 | 85 | 189 | 0.0 | 0.0 | 0.00 | 0.00 | 0.00 | 87 | 1013.5 |
| 20260903014133 | 85 | 189 | 0.0 | 1.0 | 0.00 | 0.00 | 0.00 | 87 | 1013.5 |
| 20260903013630 | 85 | 189 | 0.0 | 1.0 | 0.00 | 0.00 | 0.00 | 87 | 1013.5 |
| 20260903013127 | 85 | 189 | 0.0 | 2.0 | 0.00 | 0.00 | 0.00 | 87 | 1013.5 |
| 20260903012624 | 86 | 189 | 1.0 | 2.0 | 0.00 | 0.00 | 0.00 | 87 | 1013.5 |
| 20260903012121 | 86 | 189 | 0.0 | 3.0 | 0.00 | 0.00 | 0.00 | 87 | 1013.5 |
| 20260903011618 | 86 | 189 | 1.0 | 3.0 | 0.00 | 0.00 | 0.00 | 86 | 1013.2 |
| 20260903011039 | 86 | 144 | 2.0 | 3.0 | 0.00 | 0.00 | 0.00 | 86 | 1013.2 |
| 20260903010536 | 86 | 89 | 1.0 | 3.0 | 0.00 | 0.00 | 0.00 | 86 | 1013.2 |
| 20260903010014 | 86 | 244 | 0.0 | 2.0 | 0.00 | 0.00 | 0.00 | 86 | 1013.2 |
| 20260903005440 | 86 | 244 | 1.0 | 2.0 | 0.00 | 0.00 | 0.00 | 85 | 1013.2 |
| 20260903004905 | 86 | 244 | 0.0 | 2.0 | 0.00 | 0.00 | 0.00 | 85 | 1013.2 |
| 20260903004403 | 86 | 244 | 0.0 | 2.0 | 0.00 | 0.00 | 0.00 | 85 | 1013.2 |
| 20260903003859 | 87 | 144 | 1.0 | 1.0 | 0.00 | 0.00 | 0.00 | 84 | 1013.2 |
| 20260903003325 | 87 | 144 | 0.0 | 2.0 | 0.00 | 0.00 | 0.00 | 84 | 1013.2 |
| 20260903002821 | 87 | 144 | 0.0 | 2.0 | 0.00 | 0.00 | 0.00 | 84 | 1012.9 |
| 20260903002318 | 87 | 144 | 1.0 | 2.0 | 0.00 | 0.00 | 0.00 | 83 | 1012.9 |
| 20260903001815 | 87 | 144 | 1.0 | 2.0 | 0.00 | 0.00 | 0.00 | 83 | 1012.5 |
| 20260903001241 | 88 | 19 | 1.0 | 3.0 | 0.00 | 0.00 | 0.00 | 83 | 1012.5 |
| 20260903000722 | 88 | 23 | 1.0 | 3.0 | 0.00 | 0.00 | 0.00 | 82 | 1012.5 |
| 20260903000219 | 88 | 67 | 1.0 | 3.0 | 0.00 | 0.00 | 0.00 | 82 | 1012.5 |
| 20260902235657 | 88 | 110 | 1.0 | 3.0 | 0.00 | 0.00 | 0.00 | 81 | 1012.5 |
| 20260902235132 | 89 | 155 | 1.0 | 2.0 | 0.00 | 0.00 | 0.00 | 81 | 1012.5 |
| 20260902234558 | 89 | 155 | 1.0 | 3.0 | 0.00 | 0.00 | 0.00 | 80 | 1012.5 |
| 20260902234053 | 89 | 179 | 1.0 | 3.0 | 0.00 | 0.00 | 0.00 | 80 | 1012.9 |
| 20260902233500 | 89 | 179 | 1.0 | 3.0 | 0.00 | 0.00 | 0.00 | 79 | 1012.5 |
| 20260902232923 | 89 | 56 | 1.0 | 3.0 | 0.00 | 0.00 | 0.00 | 79 | 1012.5 |
| 20260902232421 | 90 | 88 | 1.0 | 3.0 | 0.00 | 0.00 | 0.00 | 78 | 1012.5 |
| 20260902231859 | 90 | 183 | 2.0 | 3.0 | 0.00 | 0.00 | 0.00 | 77 | 1012.5 |
| 20260902231355 | 90 | 86 | 1.0 | 3.0 | 0.00 | 0.00 | 0.00 | 76 | 1012.5 |
| 20260902230852 | 90 | 186 | 1.0 | 3.0 | 0.00 | 0.00 | 0.00 | 76 | 1012.5 |
| 20260902230330 | 91 | 115 | 1.0 | 3.0 | 0.00 | 0.00 | 0.00 | 76 | 1012.5 |
| 20260902225750 | 91 | 112 | 1.0 | 3.0 | 0.00 | 0.00 | 0.00 | 75 | 1012.5 |
| 20260902225113 | 91 | 222 | 1.0 | 3.0 | 0.00 | 0.00 | 0.00 | 76 | 1012.5 |
| 20260902224533 | 91 | 227 | 1.0 | 3.0 | 0.00 | 0.00 | 0.00 | 76 | 1012.5 |
| 20260902224030 | 92 | 204 | 1.0 | 3.0 | 0.00 | 0.00 | 0.00 | 75 | 1012.5 |
| 20260902223507 | 92 | 168 | 1.0 | 3.0 | 0.00 | 0.00 | 0.00 | 74 | 1012.5 |
| 20260902222957 | 92 | 128 | 2.0 | 3.0 | 0.00 | 0.00 | 0.00 | 74 | 1012.5 |
| 20260902222454 | 93 | 113 | 1.0 | 2.0 | 0.00 | 0.00 | 0.00 | 73 | 1012.5 |
| 20260902221920 | 93 | 113 | 1.0 | 3.0 | 0.00 | 0.00 | 0.00 | 73 | 1012.5 |
| 20260902221358 | 93 | 33 | 1.0 | 3.0 | 0.00 | 0.00 | 0.00 | 74 | 1012.5 |
| 20260902220855 | 93 | 167 | 1.0 | 3.0 | 0.00 | 0.00 | 0.00 | 74 | 1012.5 |
| 20260902220352 | 92 | 180 | 1.0 | 3.0 | 0.00 | 0.00 | 0.00 | 74 | 1012.5 |
| 20260902215849 | 92 | 152 | 1.0 | 3.0 | 0.00 | 0.00 | 0.00 | 74 | 1012.5 |
| 20260902215346 | 92 | 140 | 1.0 | 3.0 | 0.00 | 0.00 | 0.00 | 75 | 1012.5 |
| 20260902214843 | 92 | 153 | 1.0 | 4.0 | 0.00 | 0.00 | 0.00 | 75 | 1012.5 |
| 20260902214340 | 92 | 132 | 1.0 | 4.0 | 0.00 | 0.00 | 0.00 | 76 | 1012.5 |
| 20260902213837 | 92 | 140 | 1.0 | 4.0 | 0.00 | 0.00 | 0.00 | 75 | 1012.5 |
| 20260902213334 | 93 | 119 | 1.0 | 4.0 | 0.00 | 0.00 | 0.00 | 75 | 1012.5 |
| 20260902212831 | 93 | 301 | 1.0 | 3.0 | 0.00 | 0.00 | 0.00 | 76 | 1012.5 |
| 20260902212327 | 92 | 300 | 1.0 | 3.0 | 0.00 | 0.00 | 0.00 | 76 | 1012.5 |
| 20260902211825 | 92 | 257 | 1.0 | 4.0 | 0.00 | 0.00 | 0.00 | 76 | 1012.5 |
| 20260902211322 | 93 | 169 | 1.0 | 4.0 | 0.00 | 0.00 | 0.00 | 75 | 1012.9 |
| 20260902210800 | 93 | 219 | 1.0 | 4.0 | 0.00 | 0.00 | 0.00 | 75 | 1012.9 |
| 20260902210219 | 93 | 191 | 1.0 | 4.0 | 0.00 | 0.00 | 0.00 | 75 | 1012.9 |
| 20260902205716 | 93 | 189 | 1.0 | 4.0 | 0.00 | 0.00 | 0.00 | 74 | 1012.9 |
| 20260902205213 | 94 | 119 | 2.0 | 4.0 | 0.00 | 0.00 | 0.00 | 74 | 1012.9 |
| 20260902204710 | 94 | 168 | 1.0 | 3.0 | 0.00 | 0.00 | 0.00 | 74 | 1012.9 |
| 20260902204207 | 95 | 291 | 2.0 | 4.0 | 0.00 | 0.00 | 0.00 | 73 | 1012.9 |
| 20260902203704 | 95 | 169 | 1.0 | 4.0 | 0.00 | 0.00 | 0.00 | 73 | 1012.9 |
| 20260902203201 | 96 | 161 | 2.0 | 4.0 | 0.00 | 0.00 | 0.00 | 73 | 1012.9 |
| 20260902202658 | 96 | 40 | 1.0 | 3.0 | 0.00 | 0.00 | 0.00 | 72 | 1012.9 |
| 20260902202136 | 97 | 358 | 2.0 | 3.0 | 0.00 | 0.00 | 0.00 | 70 | 1012.9 |
| 20260902201633 | 97 | 319 | 0.0 | 5.0 | 0.00 | 0.00 | 0.00 | 68 | 1013.2 |
| 20260902201130 | 96 | 314 | 1.0 | 5.0 | 0.00 | 0.00 | 0.00 | 66 | 1013.2 |
| 20260902200627 | 96 | 279 | 1.0 | 5.0 | 0.00 | 0.00 | 0.00 | 69 | 1013.2 |
| 20260902200124 | 95 | 273 | 2.0 | 5.0 | 0.00 | 0.00 | 0.00 | 71 | 1013.5 |
| 20260902195621 | 95 | 296 | 1.0 | 4.0 | 0.00 | 0.00 | 0.00 | 71 | 1013.5 |
| 20260902195118 | 95 | 279 | 1.0 | 2.0 | 0.00 | 0.00 | 0.00 | 72 | 1013.5 |
| 20260902194615 | 95 | 258 | 1.0 | 2.0 | 0.00 | 0.00 | 0.00 | 72 | 1013.5 |
| 20260902194111 | 95 | 254 | 1.0 | 3.0 | 0.00 | 0.00 | 0.00 | 72 | 1013.5 |
| 20260902193538 | 95 | 254 | 1.0 | 3.0 | 0.00 | 0.00 | 0.00 | 71 | 1013.5 |
| 20260902193035 | 95 | 254 | 1.0 | 4.0 | 0.00 | 0.00 | 0.00 | 71 | 1013.9 |
| 20260902192531 | 95 | 254 | 1.0 | 4.0 | 0.00 | 0.00 | 0.00 | 71 | 1013.9 |
| 20260902192010 | 95 | 253 | 2.0 | 6.0 | 0.00 | 0.00 | 0.00 | 70 | 1013.9 |
| 20260902191448 | 96 | 252 | 1.0 | 6.0 | 0.00 | 0.00 | 0.00 | 69 | 1013.9 |
| 20260902190926 | 96 | 257 | 1.0 | 6.0 | 0.00 | 0.00 | 0.00 | 68 | 1013.9 |
| 20260902190424 | 97 | 246 | 2.0 | 5.0 | 0.00 | 0.00 | 0.00 | 68 | 1013.9 |
| 20260902185902 | 97 | 267 | 1.0 | 4.0 | 0.00 | 0.01 | 0.00 | 67 | 1013.9 |
| 20260902185400 | 97 | 157 | 0.0 | 9.0 | 0.00 | 0.01 | 0.00 | 67 | 1013.9 |
| 20260902184857 | 98 | 261 | 2.0 | 9.0 | 0.00 | 0.01 | 0.00 | 66 | 1013.9 |
| 20260902184316 | 98 | 257 | 1.0 | 9.0 | 0.00 | 0.01 | 0.00 | 68 | 1013.9 |
| 20260902183811 | 97 | 245 | 3.0 | 9.0 | 0.00 | 0.01 | 0.00 | 68 | 1014.2 |
| 20260902183308 | 97 | 253 | 2.0 | 8.0 | 0.00 | 0.01 | 0.00 | 69 | 1014.2 |
| 20260902182805 | 97 | 245 | 3.0 | 8.0 | 0.00 | 0.01 | 0.00 | 70 | 1014.2 |
| 20260902182305 | 96 | 253 | 3.0 | 8.0 | 0.00 | 0.01 | 0.00 | 69 | 1014.2 |